This is the latest recevied weather packets stored in our database for station/object KD4EG. If no packets are shown the sender has not sent any weather packets the latest 10 day(s).
| Time | Temp. | Humidity | Pressure | Rain* | Wind** | Luminosity | Snow |
|---|---|---|---|---|---|---|---|
| 1777737975 | 13.33° C | 43% | 1016.8 hPa | 0 mm | - | 744 W/m² | - |
| 1777737674 | 13.33° C | 42% | 1016.8 hPa | 0 mm | - | 853 W/m² | - |
| 1777737372 | 13.33° C | 44% | 1017 hPa | 0 mm | - | 891 W/m² | - |
| 1777737069 | 13.33° C | 42% | 1016.6 hPa | 0 mm | - | 692 W/m² | - |
| 1777736764 | 12.78° C | 46% | 1016.5 hPa | 0 mm | - | 700 W/m² | - |
| 1777736136 | 12.78° C | 44% | 1016.6 hPa | 0 mm | - | 444 W/m² | - |
| 1777735834 | 12.78° C | 45% | 1016.4 hPa | 0 mm | - | 491 W/m² | - |
| 1777735531 | 12.78° C | 46% | 1016.7 hPa | 0 mm | - | 580 W/m² | - |
| 1777735228 | 13.33° C | 47% | 1016.7 hPa | 0 mm | - | 551 W/m² | - |
| 1777734925 | 13.33° C | 46% | 1017.1 hPa | 0 mm | - | 436 W/m² | - |
| 1777734622 | 12.78° C | 47% | 1016.8 hPa | 0 mm | - | 462 W/m² | - |
| 1777734320 | 11.67° C | 49% | 1016.7 hPa | 0 mm | - | 455 W/m² | - |
| 1777734016 | 12.22° C | 48% | 1016.9 hPa | 0 mm | - | 352 W/m² | - |
| 1777733712 | 11.67° C | 49% | 1016.8 hPa | 0 mm | - | 399 W/m² | - |
| 1777733409 | 11.67° C | 48% | 1016.7 hPa | 0 mm | - | 449 W/m² | - |
| 1777733105 | 11.67° C | 48% | 1017 hPa | 0 mm | - | 278 W/m² | - |
| 1777732802 | 11.67° C | 50% | 1016.8 hPa | 0 mm | - | 291 W/m² | - |
| 1777732499 | 11.11° C | 49% | 1016.8 hPa | 0 mm | - | 280 W/m² | - |
| 1777732197 | 11.67° C | 49% | 1017 hPa | 0 mm | - | 354 W/m² | - |
| 1777731893 | 11.11° C | 50% | 1016.8 hPa | 0 mm | - | 310 W/m² | - |
| 1777731590 | 11.11° C | 50% | 1017 hPa | 0 mm | - | 282 W/m² | - |
| 1777731288 | 11.11° C | 51% | 1016.9 hPa | 0 mm | - | 256 W/m² | - |
| 1777730985 | 11.11° C | 51% | 1016.9 hPa | 0 mm | - | 265 W/m² | - |
| 1777730683 | 10.56° C | 50% | 1017 hPa | 0 mm | - | 245 W/m² | - |
| 1777730379 | 11.11° C | 50% | 1016.8 hPa | 0 mm | - | 257 W/m² | - |
* Rain latest hour (hover to see other rain measurements)
** Current wind speed in m/s (hover to see current wind gust speed)